Flag Weather past 2 weeks in Santa Rosa, California, U.S.A.

Now
64 °F

Broken clouds.


Feels Like: 64 °F
Forecast: 50 / 64 °F
Wind: 6 mph from South

Location: Santa Rosa Sonoma County Airport

Current Time: Oct 31, 2014 at 4:48:57 PM

Latest Report: Oct 31, 2014 at 3:53 PM


Visibility: 10 mi

Pressure: 29.74 "Hg

Humidity: 63%

Dew point: 51 °F

Location of Santa RosaLocation

Historic Weather in Santa Rosa — Graph

°F

Santa Rosa temperature yesterday

Maximum temperature yesterday: 75 °F (at 1:53 PM)
Minimum temperature yesterday: 52 °F (at 6:53 AM)
Average temperature yesterday: 61 °F

Past Weeks' High & Low Weather Summary

 TemperatureHumidityPressure
High83 °F (Oct 29, 2:53 PM)100% (Oct 18, 6:01 AM)30.17 "Hg (Oct 18, 6:01 AM)
Low41 °F (Oct 27, 7:53 AM)28% (Oct 21, 2:53 PM)29.75 "Hg (Oct 31, 3:00 PM)
Average60 °F78%29.96 "Hg
* Reported Oct 16 3:53 PM — Oct 31 3:00 PM, Santa Rosa, Weather by CustomWeather, © 2014

Note: Actual official high and low records may vary slightly from our data, if they occured in-between our weather recording intervals... More about our weather records

Advertising

Santa Rosa weather history for previous 24 hours

 ConditionsComfort  
Time TempWeatherWind HumidityBarometerVisibility
3:00 PM
Oct 31
66 °FBroken clouds.5 mph60%29.75 "Hg10 mi
2:00 PM63 °FScattered clouds.7 mph73%29.81 "Hg10 mi
12:53 PM61 °FMostly cloudy.3 mph78%29.80 "Hg10 mi
11:53 AM58 °FCloudy.No wind90%29.83 "Hg10 mi
10:53 AM58 °FCloudy.No wind90%29.84 "Hg7 mi
9:53 AM56 °FLight rain. Low clouds.No wind97%29.85 "Hg7 mi
8:53 AM56 °FRain. Fog.5 mph97%29.84 "Hg2 mi
8:03 AM59 °FLight rain. Fog.5 mph94%29.83 "Hg5 mi
8:00 AM59 °FLight rain. Fog.3 mph94%29.83 "Hg6 mi
6:53 AM59 °FLight rain. Fog.8 mph93%29.81 "Hg6 mi
5:53 AM60 °FOvercast.5 mph90%29.82 "Hg10 mi
4:53 AM59 °FOvercast.6 mph93%29.77 "Hg10 mi
3:53 AM59 °FOvercast.5 mph96%29.83 "Hg10 mi
3:03 AM59 °FPartly cloudy.5 mph94%29.87 "Hg10 mi
2:53 AM59 °FPartly cloudy.5 mph96%29.84 "Hg10 mi
1:53 AM59 °FOvercast.No wind96%29.85 "Hg10 mi
12:53 AM58 °FPassing clouds.3 mph100%29.86 "Hg10 mi
11:53 PM
Oct 30
59 °FPassing clouds.No wind96%29.87 "Hg7 mi
10:53 PM60 °FOvercast.3 mph96%29.88 "Hg7 mi
9:53 PM61 °FOvercast.No wind90%29.86 "Hg10 mi
9:00 PM61 °FOvercast.3 mph88%29.87 "Hg10 mi
7:53 PM60 °FPassing clouds.6 mph90%29.85 "Hg10 mi
6:53 PM61 °FBroken clouds.6 mph83%29.84 "Hg10 mi
5:53 PM64 °FBroken clouds.9 mph78%29.84 "Hg10 mi
4:53 PM71 °FPartly sunny.12 mph51%29.83 "Hg10 mi
Weather by CustomWeather, © 2014

See weather overviewHow to use our weather pages